{"data":{"norad_id":63874,"intl_designator":"2025-094L","name":"STARLINK-34052","alt_names":[],"object_type":"PAYLOAD","status":"ACTIVE","operator":null,"country":"US","launch_date":"2025-05-10","launch_site_code":"AFWTR","launch_vehicle":null,"mission":null,"orbit_class":"UNKNOWN","rcs_meters":null,"size_class":null,"mass_kg":null,"dimensions":null,"purposes":["comms"],"wikipedia_slug":null,"has_3d_model":false,"image_url":null,"decayed_at":null,"tle_current":{"epoch":"2026-05-25T03:40:56.890272Z","epoch_age_seconds":55734,"freshness":"FRESH","line1":"1 63874U 25094L   26145.15343623  .00003164  00000+0  27274-3 0  9991","line2":"2 63874  70.0024  41.7903 0002874 249.5892 110.4959 14.98338547 58652","mean_motion":14.98338547,"eccentricity":0.0002874,"inclination_deg":70.0024,"raan_deg":41.7903,"arg_perigee_deg":249.5892,"mean_anomaly_deg":110.4959,"bstar":0.00027274,"rev_number":5865,"period_min":96.106450900779,"perigee_km":570.03198233695,"apogee_km":574.02693801826,"semimajor_km":6950.1664601776,"source":"CELESTRAK","updated_at":"2026-05-25T13:38:20.171211Z"}}}